�N����,����,�~����,�C��,���x,�C��,����,���ϕ���,�ő�u�ԕ���,�ő厞����,���˗�,�I�_���x,�n�����x,�ő啗���N��,DTYPE
"22/08/08","00:10",0.0,25.7,90.9,1005.7,333.7,1.1,1.7,345.9,0.00,24.1,26.7,"00:02:16",1
"22/08/08","00:20",0.0,25.7,91.1,1005.5,331.2,1.3,2.4,337.5,0.00,24.2,26.5,"00:18:32",1
"22/08/08","00:30",0.0,25.6,91.2,1005.7,304.8,1.0,1.6,320.2,0.00,24.1,27.0,"00:23:36",1
"22/08/08","00:40",0.0,25.6,91.3,1005.5,321.0,1.0,1.4,342.7,0.00,24.1,26.6,"00:38:56",1
"22/08/08","00:50",0.0,25.6,91.4,1005.5,334.8,1.0,1.4,332.7,0.00,24.1,26.7,"00:40:48",1
"22/08/08","01:00",0.0,25.6,91.5,1005.7,297.9,0.6,1.1,329.5,0.00,24.2,26.7,"00:52:08",1
"22/08/08","01:10",0.0,25.6,91.6,1005.7,314.7,1.1,1.7,339.0,0.00,24.2,26.7,"01:08:16",1
"22/08/08","01:20",0.0,25.7,91.6,1005.7,299.6,1.0,1.7,308.5,0.00,24.3,26.4,"01:11:28",1
"22/08/08","01:30",0.0,25.7,91.6,1006.0,314.7,0.8,1.4,311.4,0.00,24.3,26.5,"01:20:56",1
"22/08/08","01:40",0.0,25.7,91.6,1005.7,25.7,0.2,0.8,276.7,0.00,24.3,26.5,"01:30:32",1
"22/08/08","01:50",0.0,25.6,91.6,1005.7,283.4,0.6,1.0,333.9,0.00,24.2,26.5,"01:49:28",1
"22/08/08","02:00",0.0,25.7,91.7,1005.7,338.8,1.1,1.6,349.4,0.00,24.3,26.5,"01:53:52",1
"22/08/08","02:10",0.0,25.6,91.8,1005.7,310.1,0.8,1.4,342.6,0.00,24.2,26.4,"02:01:28",1
"22/08/08","02:20",0.0,25.5,91.8,1006.0,326.9,1.0,1.8,343.1,0.00,24.1,26.5,"02:19:20",1
"22/08/08","02:30",0.0,25.5,91.9,1005.7,337.6,0.8,1.3,348.7,0.00,24.1,26.5,"02:29:20",1
"22/08/08","02:40",0.0,25.4,91.9,1006.0,299.5,0.7,1.0,343.1,0.00,24.0,26.3,"02:30:40",1
"22/08/08","02:50",0.0,25.4,92.1,1005.7,326.2,0.8,1.2,335.8,0.00,24.1,26.4,"02:46:24",1
"22/08/08","03:00",0.0,25.5,92.1,1005.2,333.3,0.8,1.3,346.7,0.00,24.2,26.3,"02:56:48",1
"22/08/08","03:10",0.0,25.4,92.2,1005.7,305.7,0.8,1.6,315.3,0.00,24.1,26.4,"03:09:20",1
"22/08/08","03:20",0.0,25.4,92.3,1005.7,323.5,1.0,1.7,339.6,0.00,24.1,26.4,"03:17:36",1
"22/08/08","03:30",0.0,25.5,92.4,1005.2,335.3,1.0,1.4,353.3,0.00,24.2,26.4,"03:23:20",1
"22/08/08","03:40",0.0,25.4,92.4,1005.7,301.6,0.7,1.0,320.5,0.00,24.1,26.3,"03:38:00",1
"22/08/08","03:50",0.0,25.4,92.6,1005.5,292.5,0.8,1.4,313.6,0.00,24.2,26.4,"03:42:08",1
"22/08/08","04:00",0.0,25.4,92.6,1005.2,308.6,0.8,1.6,327.6,0.00,24.2,26.3,"03:51:52",1
"22/08/08","04:10",0.0,25.5,92.6,1005.5,302.5,0.6,1.0,340.0,0.00,24.3,26.2,"04:08:32",1
"22/08/08","04:20",0.0,25.4,92.7,1005.2,301.8,0.5,1.0,270.1,0.00,24.2,26.3,"04:16:16",1
"22/08/08","04:30",0.0,25.3,92.7,1005.7,298.5,0.6,1.0,335.1,0.00,24.1,26.0,"04:29:20",1
"22/08/08","04:40",0.0,25.2,92.8,1005.7,341.2,1.0,1.7,348.1,0.00,24.0,26.2,"04:38:32",1
"22/08/08","04:50",0.0,25.1,92.9,1005.5,320.2,0.7,1.2,339.1,0.00,23.9,26.3,"04:40:08",1
"22/08/08","05:00",0.0,25.0,93.0,1005.5,322.6,0.3,1.1,347.2,0.00,23.8,26.2,"04:56:56",1
"22/08/08","05:10",0.0,24.9,93.1,1005.5,321.3,0.8,1.2,327.8,0.00,23.7,26.1,"05:00:02",1
"22/08/08","05:20",0.0,24.8,93.1,1006.0,309.0,0.6,1.4,307.7,0.00,23.6,26.2,"05:10:08",1
"22/08/08","05:30",0.0,24.7,93.3,1006.2,285.9,0.7,1.0,306.5,0.00,23.6,26.2,"05:29:04",1
"22/08/08","05:40",0.0,24.8,93.3,1006.2,342.9,0.8,1.4,353.0,0.00,23.7,26.0,"05:35:20",1
"22/08/08","05:50",0.0,24.8,93.4,1006.0,317.6,0.6,1.2,310.2,0.00,23.7,26.1,"05:48:16",1
"22/08/08","06:00",0.0,24.7,93.5,1006.2,302.6,0.7,1.1,328.3,0.00,23.6,26.2,"05:51:44",1
"22/08/08","06:10",0.0,24.8,93.6,1006.0,295.9,0.7,1.1,337.5,0.00,23.7,26.1,"06:01:52",1
"22/08/08","06:20",0.0,25.0,93.6,1006.0,291.2,0.8,1.1,326.3,0.00,23.9,26.1,"06:18:16",1
"22/08/08","06:30",0.0,25.2,93.7,1006.0,322.6,1.0,1.4,319.6,0.00,24.2,26.0,"06:20:32",1
"22/08/08","06:40",0.0,25.4,93.7,1006.2,317.1,0.5,1.1,333.1,0.01,24.3,26.0,"06:39:44",1
"22/08/08","06:50",0.0,25.8,93.7,1006.0,330.7,0.8,1.2,333.5,0.03,24.7,26.0,"06:41:28",1
"22/08/08","07:00",0.0,26.6,93.7,1005.7,308.0,0.3,1.1,350.4,0.04,25.5,26.0,"06:50:24",1
"22/08/08","07:10",0.0,27.1,93.5,1006.0,329.4,0.3,1.2,345.0,0.06,26.0,25.9,"07:09:12",1
"22/08/08","07:20",0.0,27.8,93.2,1006.0,54.6,0.2,0.9,13.4,0.07,26.6,25.8,"07:13:52",1
"22/08/08","07:30",0.0,27.5,92.2,1006.0,82.5,0.5,1.2,355.6,0.09,26.2,26.0,"07:27:44",1
"22/08/08","07:40",0.0,28.0,91.6,1005.5,359.8,0.5,1.1,6.1,0.14,26.5,26.1,"07:38:08",1
"22/08/08","07:50",0.0,28.6,90.0,1006.0,13.1,0.5,1.2,13.7,0.14,26.8,26.1,"07:44:08",1
"22/08/08","08:00",0.0,29.1,87.6,1006.0,33.0,0.6,1.6,358.5,0.13,26.9,25.9,"07:58:08",1
"22/08/08","08:10",0.0,29.5,84.9,1006.2,10.7,1.0,1.9,7.0,0.18,26.7,26.0,"08:06:20",1
"22/08/08","08:20",0.0,30.2,81.0,1006.4,22.1,0.8,2.1,5.6,0.23,26.6,25.9,"08:14:16",1
"22/08/08","08:30",0.0,30.9,77.3,1006.9,112.1,0.7,2.0,126.3,0.29,26.5,26.0,"08:22:16",1
"22/08/08","08:40",0.0,30.7,75.4,1007.4,161.7,1.0,2.1,123.9,0.22,25.9,25.9,"08:34:00",1
"22/08/08","08:50",0.0,30.7,74.6,1007.4,167.8,1.2,2.5,200.4,0.31,25.7,26.0,"08:40:02",1
"22/08/08","09:00",0.0,30.4,75.6,1007.1,157.4,1.1,3.3,197.6,0.18,25.6,26.2,"08:50:16",1
"22/08/08","09:10",0.0,30.9,76.0,1007.1,126.2,1.0,2.0,104.9,0.30,26.2,26.0,"09:04:48",1
"22/08/08","09:20",0.0,31.7,73.2,1007.8,140.5,1.0,1.9,121.9,0.37,26.3,26.2,"09:12:48",1
"22/08/08","09:30",0.0,32.0,71.7,1007.8,182.7,1.3,2.7,201.1,0.40,26.3,26.2,"09:21:44",1
"22/08/08","09:40",0.0,32.1,70.0,1008.1,144.8,1.2,2.6,199.7,0.40,26.0,26.0,"09:37:20",1
"22/08/08","09:50",0.0,32.5,69.6,1008.1,148.4,1.2,2.6,183.3,0.40,26.3,26.0,"09:40:32",1
"22/08/08","10:00",0.0,32.9,68.8,1008.3,151.1,1.5,3.3,125.1,0.47,26.4,26.3,"09:58:48",1
"22/08/08","10:10",0.0,32.5,70.1,1007.6,147.2,1.7,3.6,125.3,0.41,26.4,26.2,"10:00:56",1
"22/08/08","10:20",0.0,33.3,67.5,1008.3,177.5,1.3,4.0,206.4,0.51,26.5,26.4,"10:13:52",1
"22/08/08","10:30",0.0,33.2,65.8,1008.6,180.2,1.7,3.7,125.1,0.47,26.0,26.3,"10:26:08",1
"22/08/08","10:40",0.0,32.9,66.6,1008.6,157.5,1.7,3.5,132.0,0.40,25.9,26.4,"10:34:08",1
"22/08/08","10:50",0.0,32.5,65.8,1008.3,171.0,2.2,4.1,144.4,0.40,25.3,26.4,"10:45:12",1
"22/08/08","11:00",0.0,32.2,66.4,1007.8,197.5,1.7,4.4,229.4,0.17,25.2,26.3,"10:51:04",1
"22/08/08","11:10",0.0,32.7,66.4,1007.1,217.9,1.8,4.1,232.9,0.39,25.7,26.6,"11:01:04",1
"22/08/08","11:20",0.0,33.2,64.1,1007.6,210.2,2.0,3.7,227.4,0.48,25.5,26.5,"11:16:56",1
"22/08/08","11:30",0.0,33.1,63.1,1008.1,235.3,0.7,2.0,230.2,0.16,25.2,26.6,"11:24:42",1
"22/08/08","11:40",0.0,33.2,63.0,1007.4,201.1,2.1,6.0,212.3,0.39,25.2,26.7,"11:34:00",1
"22/08/08","11:50",0.0,34.2,60.0,1007.6,192.6,1.5,3.6,226.7,0.56,25.4,26.6,"11:41:44",1
"22/08/08","12:00",0.0,33.8,60.8,1007.4,147.4,1.8,3.7,143.4,0.37,25.2,26.5,"11:51:12",1
"22/08/08","12:10",0.0,33.8,59.7,1007.1,216.8,2.3,4.7,225.9,0.47,24.9,26.7,"12:09:44",1
"22/08/08","12:20",0.0,34.6,57.9,1007.4,221.2,1.8,4.0,216.7,0.55,25.1,26.8,"12:10:08",1
"22/08/08","12:30",0.0,34.7,58.3,1007.1,206.8,2.2,5.2,210.7,0.54,25.3,26.7,"12:24:16",1
"22/08/08","12:40",0.0,34.8,56.3,1007.4,218.0,2.6,7.7,216.8,0.58,24.9,26.7,"12:39:36",1
"22/08/08","12:50",0.0,34.7,58.9,1007.4,207.1,1.8,4.3,222.2,0.45,25.5,26.7,"12:40:48",1
"22/08/08","13:00",0.0,35.2,56.1,1007.1,179.1,2.5,6.5,207.5,0.62,25.2,27.1,"12:58:32",1
"22/08/08","13:10",0.0,34.9,58.0,1007.1,198.2,2.0,5.2,219.3,0.46,25.4,27.1,"13:01:20",1
"22/08/08","13:20",0.0,34.9,57.0,1006.9,259.0,1.5,3.4,195.8,0.36,25.2,26.7,"13:10:02",1
"22/08/08","13:30",0.0,35.6,55.1,1006.7,210.0,1.7,3.9,234.9,0.58,25.2,27.0,"13:23:04",1
"22/08/08","13:40",0.0,36.1,55.6,1006.9,188.4,2.2,6.3,194.0,0.56,25.8,27.0,"13:35:36",1
"22/08/08","13:50",0.0,36.1,51.9,1006.7,221.0,1.3,3.2,248.0,0.54,24.7,27.2,"13:40:02",1
"22/08/08","14:00",0.0,36.1,53.1,1006.7,213.4,1.7,5.2,216.2,0.52,25.1,27.1,"13:53:44",1
"22/08/08","14:10",0.0,35.0,55.7,1006.4,255.4,2.1,6.2,210.4,0.21,24.9,27.1,"14:04:32",1
"22/08/08","14:20",0.0,33.6,59.8,1005.7,318.7,1.8,4.5,346.4,0.10,24.7,27.2,"14:18:00",1
"22/08/08","14:30",0.0,33.8,60.4,1005.5,258.3,1.8,6.2,235.8,0.28,25.1,27.2,"14:28:48",1
"22/08/08","14:40",0.0,34.2,59.8,1005.5,269.1,1.6,3.6,219.2,0.42,25.3,27.2,"14:31:12",1
"22/08/08","14:50",0.0,34.7,55.0,1005.7,269.9,1.6,3.6,228.2,0.49,24.4,27.1,"14:48:16",1
"22/08/08","15:00",0.0,35.1,54.5,1005.7,255.8,1.6,4.2,235.8,0.47,24.6,27.2,"14:50:48",1
"22/08/08","15:10",0.0,34.9,56.5,1005.5,233.6,2.5,4.9,229.5,0.42,25.0,27.3,"15:05:44",1
"22/08/08","15:20",0.0,35.1,55.9,1005.5,292.6,1.6,4.8,332.3,0.41,25.0,27.4,"15:11:28",1
"22/08/08","15:30",0.0,35.4,54.8,1005.7,283.3,1.5,4.1,233.9,0.39,25.0,27.3,"15:22:40",1
"22/08/08","15:40",0.0,34.9,57.1,1005.0,237.8,2.2,5.0,203.4,0.30,25.2,27.2,"15:32:24",1
"22/08/08","15:50",0.0,35.5,56.9,1005.0,238.8,1.7,3.9,233.3,0.37,25.7,27.2,"15:46:56",1
"22/08/08","16:00",0.0,35.5,54.1,1005.5,249.6,1.6,3.6,189.2,0.32,24.8,27.3,"15:53:36",1
"22/08/08","16:10",0.0,35.4,53.7,1005.5,245.7,1.6,4.4,242.1,0.29,24.6,27.3,"16:04:40",1
"22/08/08","16:20",0.0,35.1,55.7,1004.8,232.2,1.8,4.7,240.7,0.22,25.0,27.3,"16:10:16",1
"22/08/08","16:30",0.0,35.2,55.3,1005.0,250.6,1.1,2.9,214.9,0.24,24.9,27.4,"16:23:04",1
"22/08/08","16:40",0.0,34.9,55.6,1005.0,288.7,1.2,2.7,246.3,0.17,24.7,27.4,"16:35:44",1
"22/08/08","16:50",0.0,34.5,57.5,1005.0,273.0,1.3,3.4,249.9,0.13,24.9,27.5,"16:40:40",1
"22/08/08","17:00",0.0,34.0,59.3,1004.5,250.3,1.1,2.9,233.7,0.08,25.0,27.6,"16:58:48",1
"22/08/08","17:10",0.0,33.7,60.7,1004.8,241.7,1.5,3.2,251.7,0.07,25.1,27.5,"17:00:48",1
"22/08/08","17:20",0.0,34.0,60.2,1004.5,231.4,1.3,2.7,244.2,0.11,25.2,27.2,"17:11:12",1
"22/08/08","17:30",0.0,34.1,60.1,1004.5,236.3,1.3,2.8,238.4,0.11,25.3,27.4,"17:23:36",1
"22/08/08","17:40",0.0,33.7,61.4,1004.3,233.5,1.7,3.7,222.5,0.08,25.3,27.5,"17:38:16",1
"22/08/08","17:50",0.0,33.4,62.5,1004.3,225.9,1.7,3.5,217.4,0.07,25.3,27.4,"17:48:40",1
"22/08/08","18:00",0.0,33.4,62.7,1004.5,236.5,1.5,3.1,230.3,0.06,25.3,27.5,"17:50:48",1
"22/08/08","18:10",0.0,33.1,63.4,1004.3,240.1,1.6,4.2,236.3,0.05,25.3,27.6,"18:00:56",1
"22/08/08","18:20",0.0,32.8,63.6,1004.1,248.2,1.6,3.3,234.1,0.04,25.0,27.5,"18:13:52",1
"22/08/08","18:30",0.0,32.7,64.3,1004.3,242.6,1.5,3.3,234.3,0.03,25.1,27.5,"18:24:00",1
"22/08/08","18:40",0.0,32.5,64.3,1004.5,247.4,1.5,3.7,241.7,0.02,24.9,27.5,"18:34:16",1
"22/08/08","18:50",0.0,32.4,65.3,1004.3,247.0,1.3,3.5,236.2,0.01,25.1,27.4,"18:48:32",1
"22/08/08","19:00",0.0,32.1,66.2,1004.3,241.7,1.5,3.4,235.1,0.00,25.0,27.1,"18:59:52",1
"22/08/08","19:10",0.0,32.0,66.8,1004.3,240.6,1.7,4.1,231.7,0.00,25.1,27.5,"19:02:40",1
"22/08/08","19:20",0.0,31.7,67.3,1004.3,239.7,1.6,3.5,235.1,0.00,24.9,27.4,"19:16:48",1
"22/08/08","19:30",0.0,31.5,68.2,1004.5,236.7,1.5,3.9,228.3,0.00,25.0,27.5,"19:22:24",1
"22/08/08","19:40",0.0,31.2,69.4,1004.1,222.1,1.5,2.8,221.2,0.00,25.0,27.4,"19:33:12",1
"22/08/08","19:50",0.0,30.6,71.6,1004.1,346.5,0.6,1.6,359.8,0.00,24.9,27.5,"19:42:24",1
"22/08/08","20:00",0.0,30.0,74.1,1004.1,318.1,0.3,1.0,354.0,0.00,24.9,27.3,"19:58:08",1
"22/08/08","20:10",0.0,29.6,75.8,1003.8,315.8,0.7,1.1,334.3,0.00,24.9,27.3,"20:08:24",1
"22/08/08","20:20",0.0,29.2,77.0,1003.8,328.8,0.6,1.0,327.2,0.00,24.8,27.0,"20:19:04",1
"22/08/08","20:30",0.0,29.0,77.9,1004.3,286.6,0.7,1.2,333.9,0.00,24.8,27.4,"20:21:20",1
"22/08/08","20:40",0.0,28.8,78.3,1004.3,285.0,0.6,1.3,258.3,0.00,24.7,27.1,"20:38:24",1
"22/08/08","20:50",0.0,28.8,79.0,1004.3,334.4,1.1,1.7,346.0,0.00,24.8,27.1,"20:44:16",1
"22/08/08","21:00",0.0,28.5,79.7,1004.8,336.5,1.2,2.4,346.6,0.00,24.7,27.1,"20:52:32",1
"22/08/08","21:10",0.0,28.5,80.4,1004.8,335.4,1.0,1.7,352.4,0.00,24.8,27.1,"21:00:02",1
"22/08/08","21:20",0.0,28.3,81.1,1005.0,340.0,1.1,2.1,355.9,0.00,24.8,27.0,"21:19:28",1
"22/08/08","21:30",0.0,27.8,82.2,1005.0,342.4,1.5,2.2,356.3,0.00,24.5,27.2,"21:22:08",1
"22/08/08","21:40",0.0,27.6,82.9,1005.2,321.7,1.5,2.4,354.8,0.00,24.5,27.2,"21:31:12",1
"22/08/08","21:50",0.0,27.4,83.2,1005.2,324.5,1.1,2.4,313.7,0.00,24.3,27.1,"21:46:00",1
"22/08/08","22:00",0.0,27.2,83.5,1005.0,324.4,1.0,2.0,340.3,0.00,24.2,27.1,"21:53:12",1
"22/08/08","22:10",0.0,27.2,83.2,1005.0,331.0,1.7,3.2,324.1,0.00,24.1,27.0,"22:08:16",1
"22/08/08","22:20",0.0,27.5,81.9,1005.0,331.4,1.6,3.3,344.5,0.00,24.2,27.0,"22:10:08",1
"22/08/08","22:30",0.0,27.6,81.1,1005.0,325.6,1.1,1.9,342.5,0.00,24.1,27.0,"22:26:00",1
"22/08/08","22:40",0.0,27.3,81.4,1005.2,314.7,0.7,2.1,345.6,0.00,23.9,26.9,"22:30:32",1
"22/08/08","22:50",0.0,27.1,82.1,1005.2,270.1,1.1,2.0,244.9,0.00,23.8,26.8,"22:40:02",1
"22/08/08","23:00",0.0,26.8,82.5,1005.0,320.6,0.8,1.8,234.2,0.00,23.6,26.9,"22:50:08",1
"22/08/08","23:10",0.0,26.9,83.1,1005.2,318.8,1.0,1.2,336.7,0.00,23.8,27.0,"23:01:52",1
"22/08/08","23:20",0.0,26.7,83.8,1005.2,313.5,1.1,1.7,333.7,0.00,23.8,26.8,"23:15:12",1
"22/08/08","23:30",0.0,26.5,84.3,1005.7,326.0,0.7,1.3,334.1,0.00,23.7,26.7,"23:20:16",1
"22/08/08","23:40",0.0,26.2,84.6,1005.7,303.2,0.6,1.0,320.2,0.00,23.4,26.8,"23:32:16",1
"22/08/08","23:50",0.0,26.2,85.2,1005.5,319.1,1.1,1.7,347.8,0.00,23.6,26.8,"23:46:00",1
"22/08/08","24:00",0.0,26.1,85.9,1005.5,305.1,0.8,1.6,319.9,0.00,23.6,26.7,"23:57:52",1
